This demonstration page uses our WeatherBlox Daily Observations layout. Learn more.

Left ArrowRight Arrow

47.50024, -111.30081

Hourly Observations for May 24, 2015

Temp ( °F °C ) Dew Point ( °F °C ) Humidity (%) Winds ( mph kmh ) Pressure ( in mb ) Visibility ( mi km ) Precip ( " mm )
12:53 am 00:53 Cloudy 50 10 48 8.9 93 93 WNW 3 6 30.11 1020 10 16 0.00 0.00
1:53 am 01:53 Mostly Cloudy 48 8.9 47 8.3 96 96 SW 3 6 30.10 1019 8 13 0.00 0.00
2:05 am 02:05 Mostly Clear with Mist and Fog 47 8.3 47 8.3 100 100 SW 3 6 30.09 1019 2 3 0.00 0.00
2:09 am 02:09 Mostly Clear with Mist and Fog 47 8.3 47 8.3 100 100 SW 3 6 30.09 1019 1 1 0.00 0.00
2:30 am 02:30 Clear with Mist and Fog 43 6 43 6 100 100 SW 6 9 30.12 1020 2 2 0.00 0.00
2:32 am 02:32 Clear with Mist and Fog 45 7 43 6 93 93 SW 6 9 30.12 1020 3 5 0.00 0.00
2:53 am 02:53 Clear 44 6.7 43 6.1 96 96 SW 5 7 30.11 1020 10 16 0.00 0.00
3:47 am 03:47 Clear with Mist and Fog 45 7 45 7 100 100 SSW 3 6 30.12 1020 2 3 0.00 0.00
3:50 am 03:50 Clear with Mist and Fog 45 7 43 6 93 93 SW 3 6 30.12 1020 1 1 0.00 0.00
3:53 am 03:53 Clear with Fog 44 6.7 43 6.1 96 96 SW 3 6 30.12 1020 1 1 0.00 0.00
4:43 am 04:43 Mostly Cloudy with Fog 42 5.6 41 5 96 96 Calm 30.12 1020 0 0 0.00 0.00
4:53 am 04:53 Clear with Fog 44 6.7 43 6.1 96 96 Calm 30.11 1020 1 1 0.00 0.00
5:18 am 05:18 Clear with Fog 45 7 43 6 93 93 N 3 6 30.12 1020 0 0 0.00 0.00
5:27 am 05:27 Clear with Fog 43 6.1 42 5.6 97 97 Calm 30.12 1020 1 1 0.00 0.00
5:40 am 05:40 Sunny with Fog 45 7 43 6 93 93 Calm 30.12 1020 0 0 0.00 0.00
5:53 am 05:53 Sunny with Fog 44 6.7 43 6.1 96 96 Calm 30.12 1020 0 0 0.00 0.00
6:53 am 06:53 Sunny with Fog 45 7.2 45 7.2 100 100 Calm 30.11 1020 5 8 0.00 0.00
7:31 am 07:31 Mostly Cloudy with Fog 48 8.9 47 8.3 96 96 Calm 30.09 1019 0 0 0.00 0.00
7:49 am 07:49 Mostly Cloudy with Mist and Fog 48 9 48 9 100 100 N 3 6 30.09 1019 1 2 0.00 0.00
7:51 am 07:51 Cloudy with Mist and Fog 48 9 48 9 100 100 NNE 5 7 30.09 1019 2 3 0.00 0.00
7:53 am 07:53 Cloudy with Mist and Fog 50 10 49 9.4 96 96 NNE 5 7 30.11 1020 6 10 0.00 0.00
8:04 am 08:04 Partly Cloudy 48 9 48 9 100 100 NNE 6 9 30.09 1019 10 16 0.00 0.00
8:53 am 08:53 Cloudy 51 10.6 48 8.9 89 89 N 3 6 30.10 1019 10 16 0.00 0.00
9:53 am 09:53 Cloudy 53 11.7 47 8.3 80 80 ENE 6 9 30.09 1019 10 16 0.00 0.00
10:53 am 10:53 Cloudy 57 13.9 46 7.8 67 67 ENE 8 13 30.07 1018 10 16 0.00 0.00
11:53 am 11:53 Cloudy 56 13.3 45 7.2 67 67 E 10 17 30.07 1018 10 16 0.00 0.00
12:53 pm 12:53 Cloudy 58 14.4 43 6.1 58 58 NE 8 13 30.06 1018 10 16 0.00 0.00
1:53 pm 13:53 Cloudy 60 15.6 42 5.6 52 52 ENE 7 11 30.04 1017 10 16 0.00 0.00
2:53 pm 14:53 Mostly Sunny 63 17.2 42 5.6 47 47 E 6 9 30.03 1017 10 16 0.00 0.00
3:53 pm 15:53 Mostly Cloudy 64 17.8 42 5.6 45 45 ENE 10 17 30.01 1016 10 16 0.00 0.00
4:53 pm 16:53 Cloudy 63 17.2 42 5.6 47 47 E 10 17 30.00 1016 10 16 0.00 0.00
5:53 pm 17:53 Cloudy 64 17.8 42 5.6 45 45 E 12 19 29.98 1015 10 16 0.00 0.00
6:53 pm 18:53 Sunny 62 16.7 41 5 46 46 E 8 13 29.96 1015 10 16 0.00 0.00
7:53 pm 19:53 Sunny 61 16.1 43 6.1 52 52 ESE 6 9 29.95 1014 10 16 0.00 0.00
8:53 pm 20:53 Sunny 56 13.3 45 7.2 67 67 S 6 9 29.95 1014 10 16 0.00 0.00
9:53 pm 21:53 Clear 54 12.2 44 6.7 69 69 SSE 5 7 29.96 1015 10 16 0.00 0.00
10:53 pm 22:53 Clear 51 10.6 43 6.1 74 74 SSE 3 6 29.95 1014 10 16 0.00 0.00
11:53 pm 23:53 Clear 50 10 42 5.6 74 74 E 6 9 29.94 1014 10 16 0.00 0.00

Powered by AerisWeather